Regional Weather Roundup
Issued by NWS

Home | Current Version | Previous Version | Text Only | Print | Product List | Glossary Off
Versions: 1 2 3 4 5 6 7 8 9 10 11 12 13 14 15 16 17 18 19 20 21 22 23 24 25 26 27 28 29 30 31 32 33 34 35 36 37 38 39 40 41 42 43 44 45 46 47 48 49 50

000
ASUS43 KFSD 122310
RWRSD

WEATHER ROUNDUP FOR SOUTH DAKOTA
NATIONAL WEATHER SERVICE SIOUX FALLS SD
500 PM CST FRI FEB 12 2016

NOTE: "FAIR" INDICATES FEW OR NO CLOUDS BELOW 12,000 FEET WITH NO
SIGNIFICANT WEATHER AND/OR OBSTRUCTIONS TO VISIBILITY.


SDZ001>005-009-010-012>017-130000-
NORTHWEST AND NORTH CENTRAL SOUTH DAKOTA

CITY           SKY/WX    TMP DP  RH WIND       PRES   REMARKS
BUFFALO          N/A     23  17  78 SE16      30.29R WCI  10
FAITH            N/A     20  11  68 E10       30.43R WCI   9
MOBRIDGE       CLOUDY    16   5  62 NE7       30.51S WCI   6
$$

SDZ012>016-024>037-041>051-057-063-072>074-130000-
SOUTHWEST AND SOUTH CENTRAL SOUTH DAKOTA

CITY           SKY/WX    TMP DP  RH WIND       PRES   REMARKS
RAPID CTY ARPT FOG       25  23  92 SE13      30.35R VSB 1   WCI  14
PIERRE         CLOUDY    20  10  65 E10       30.52R WCI   9
CUSTER         FOG       26  24  92 S12G24    30.23S VSB 1/4 WCI  16
ELLSWORTH AFB  FRZ RAIN  25  25  99 SE12      30.33  VSB 1/2 WCI  14
PHILIP         CLOUDY    25  17  72 E10       30.45S WCI  15
PINE RIDGE     CLOUDY    33  26  75 SE8       30.33F WCI  26
SPEARFISH        N/A     27  25  93 SE6       30.28S WCI  20
WINNER         CLOUDY    23  12  62 E7        30.51R WCI  15
$$

SDZ004>011-016>023-039-040-130000-
NORTHEAST SOUTH DAKOTA

CITY           SKY/WX    TMP DP  RH WIND       PRES   REMARKS
ABERDEEN       CLOUDY     5  -7  57 N12       30.64R WCI -11
WATERTOWN      CLOUDY     2  -9  60 N13       30.55R WCI -15
BROOKINGS      CLOUDY     5  -6  60 N13       30.55R WCI -12
SISSETON         N/A      0  -9  65 N15       30.63S WCI -19
$$

SDZ017-020-022-023-036>040-048>070-130000-
SOUTHEAST SOUTH DAKOTA

CITY           SKY/WX    TMP DP  RH WIND       PRES   REMARKS
SIOUX FALLS    CLOUDY     8  -4  58 N12       30.57R WCI  -7
HURON          CLOUDY     9  -1  64 N12       30.62R WCI  -6
CHAMBERLAIN    CLOUDY    17   8  68 NE8       30.56R WCI   6
MITCHELL       CLOUDY    11   2  67 N12       30.61R WCI  -3
YANKTON        CLOUDY    14   1  57 N12       30.60R WCI   0
$$

ABBREVIATIONS USED IN REMARKS
   TC - TEMPERATURE IN CELSIUS
  WCI - WIND CHILL INDEX
   HX - HEAT INDEX
  VSB - VISIBILITY




USA.gov is the U.S. government's official web portal to all federal, state and local government web resources and services.